COSMOS 2357

Satellite information

Favourite Embed

Satellite Type and Status

PAYLOADIN ORBIT

Key statistics

Satellite COSMOS 2357 at a glance.

Uptime

9948

Days in orbit

Revolutions

≈ 12.2

Per day

Orbit

LEO

Low Earth Orbit

Inclination

82.6

Latest

Satellite identification and parameters

Extended collection of information and parameters for COSMOS 2357.

Object identification

Identified? True

Debris? False

Object name: COSMOS 2357

International designator: 1998-036F

Object number (NORAD): 25368

Object ID (CCSDS): 25368

Country: COMMONWEALTH OF INDEPENDENT STATES (CIS)

Current information (Y/N): Y

RCS size: MEDIUM

Orbital parameters

Period: 117.707 minutes

Inclination: 82.5862 deg

SMA: 7955.992 km

Apoapsis: 1861.712 km

Periapsis: 1294.002 km

RAAN: 128.3449 deg

Eccentricy: 0.03567812

Argument of periapsis: 4.302 deg

Mean anomaly: 356.0978 deg

Mean motion: 12.23379672 rev/day

Mean motion (dot): 0.00000047 rev/day2

B* drag term: 0.00028858803 1/REarth

Two-line elements (TLE)

Creation date: Sept. 8, 2025, 6:18 p.m.

Reference frame: TEME

Reference center: EARTH

Epoch: Sept. 8, 2025, 9:44 a.m. UTC

TLE line 0: 0 COSMOS 2357

TLE line 1: 1 25368U 98036F 25251.40576740 .00000047 00000-0 28859-3 0 9994

TLE line 2: 2 25368 82.5862 128.3449 0356781 4.3020 356.0978 12.23379672216185

Live tracking on map

Real-time ground track for satellite COSMOS 2357.

In-orbit conjunctions

A list of the most updated potential collisions computed for object COSMOS 2357.

Target Orbit TCA Probability of collision Miss distance Type
OPS 4682 DEB SSO 2025-04-29 19:17:04 0.001398058 222.0 (m) DEBRIS

Associated space launch

Second generation store-dump military communications satellites

COSMOS 2357 was lifted into orbit during the mission ‘Tsiklon-3 | Strela-3 119 to 124’, on board a Tsiklon-3 space rocket.

The launch took place on June 15, 1998, 10:58 p.m. from 32/1.

For more information about the launch, click the button.

Launch to space Tsiklon-3 | Strela-3 119 to 124
Tsiklon-3 | Strela-3 119 to 124

Agency: N/A

Status: Launch Successful

Launch date: June 15, 1998, 10:58 p.m. UTC

Rocket: Tsiklon-3

Launch pad: 32/1

Location: Plesetsk Cosmodrome, Russian Federation

...

Latest news about this satellite

There are no fresh news available about this satellite. Check back as we update our databases every day.


Newsletter sign-up

Weekly statistics, charts and insights to help you stay on top of the space industry.